Regional Weather Roundup
Issued by NWS Mobile, AL

Home | Current Version | Previous Version | Text Only | Print | Product List | Glossary On
Versions: 1 2 3 4 5 6 7 8 9 10 11 12 13 14 15 16 17 18 19 20 21 22 23 24 25 26 27 28 29 30 31 32 33 34 35 36 37 38 39 40 41 42 43 44 45 46 47 48 49 50
000
ASUS44 KMOB 302212
RWRMOB
REGIONAL WEATHER ROUNDUP
NATIONAL WEATHER SERVICE MOBILE AL
500 PM CDT MON MAY 30 2016

NOTE: "FAIR" INDICATES FEW OR NO CLOUDS BELOW 12,000 FEET WITH NO
      SIGNIFICANT WEATHER AND/OR OBSTRUCTIONS TO VISIBILITY.

  * THESE STATIONS ARE PART OF THE UNIVERSITY OF SOUTH ALABAMA
    MESONET AND ARE NOT UNDER NWS OR FAA QUALITY CONTROL.

ALZ061>064-302300-
COASTAL ALABAMA

CITY           SKY/WX    TMP DP  RH WIND       PRES   REMARKS
MOBILE REG APT PTSUNNY   84  70  62 S13       29.95F
BROOKLEY FIELD PTSUNNY   87  71  58 SE12G18   29.95F
USA CAMPUS*    NOT AVBL
DOG RIVER*     NOT AVBL


CITY           SKY/WX    TMP DP  RH WIND       PRES   REMARKS
MOUNT VERNON*  NOT AVBL
SARALAND*      NOT AVBL
BAY MINETTE*   NOT AVBL
LOXLEY*        NOT AVBL
ROBERTSDALE*   NOT AVBL
FAIRHOPE*      NOT AVBL
ELBERTA*       NOT AVBL
FOLEY*         NOT AVBL
GRAND BAY*     NOT AVBL
DAUPHIN ISLND* NOT AVBL
BON SCOUR NWR* NOT AVBL
GULF SHORES    PTSUNNY   87  72  60 SW10      29.95F

$$

ALZ051>060-302300-
INTERIOR SOUTHWEST AND SOUTH CENTRAL ALABAMA

CITY           SKY/WX    TMP DP  RH WIND       PRES   REMARKS
GREENVILLE     SUNNY     94  59  31 NW6       29.93F
EVERGREEN      SUNNY     93  63  36 W5        29.93F
CASTLEBERRY*   NOT AVBL
ATMORE*        NOT AVBL
DIXIE*         NOT AVBL
ANDALUSIA/OPP  SUNNY     97  62  31 NW9       29.91F HX  98
ANDALUSIA*     NOT AVBL
FLORALA APT    MOSUNNY   86  66  51 SW10      29.94S
FLORALA*       NOT AVBL

$$

FLZ001>006-302300-
WESTERN FLORIDA PANHANDLE

CITY           SKY/WX    TMP DP  RH WIND       PRES   REMARKS
PENSACOLA      CLOUDY    83  68  60 W10       29.93F
NAS PENSACOLA  NOT AVBL
MILTON         MOSUNNY   85  68  56 SW13      29.93F
WHTNG S FIELD    N/A    N/A N/A N/A MISG      29.94


CITY           SKY/WX    TMP DP  RH WIND       PRES   REMARKS
WALNUT HILL*   NOT AVBL
JAY*           NOT AVBL
DUKE FIELD     CLOUDY    87  65  49 SW12      29.93S
CRESTVIEW      MOSUNNY   87  64  46 W9        29.94F
VALPARAISO     PTSUNNY   82  69  65 SW8       29.94S
DESTIN         CLOUDY    84  75  74 W6        29.94S

$$

MSZ076-079-302300-
INTERIOR SOUTHEAST MISSISSIPPI

CITY           SKY/WX    TMP DP  RH WIND       PRES   REMARKS
LEAKESVILLE*   NOT AVBL
AGRICOLA*      NOT AVBL

$$

MARINE OBSERVATIONS

STATION/POSITION TIME  TEMP    WIND        PRES    WAVE
                       AIR SEA DIR/SP/G            HT/PER
                 (UTC) (F)     (DEG/KT/KT) (MB)    (FT/S)
PASCAGOULA       2100   85     210/  9/ 13 1014.3F
PETIT BOIS ISLND 2100   83     220/ 12/ 14 1015.1F
GRAND BAY        2000   85     200/  9     1016.0F
KATRINA CUT      2100   82     220/ 11     1014.9F
CEDAR POINT      2100   82     230/ 11     1014.6F
E DAUPHIN ISLAND 2100   83     210/  9/ 12 1014.3F
MIDDLE BAY LIGHT 2100   83     210/ 13     1014.6S
USCG MOBILE BAY  2100   89 80  210/  3/  9 1014.6F
STATE DOCKS      2100   88 81              1014.0F
MEAHER PARK      2100   82     130/ 12     1013.5R
WEEKS BAY        2000   87                   N/A
FORT MORGAN      2100   83     230/ 10/ 12 1014.2F
12 S ORANGE BCH  2150   82 84              1013.5F   1
PENSACOLA BAY    2100      81  150/  1/  3 1014.9F
64 S DAUPHIN ISL 2200   81 81  240/  8/ 10 1014.4F

$$

SELECTED LOCATIONS ACROSS THE REGION

CITY           SKY/WX    TMP DP  RH WIND       PRES   REMARKS
NEW ORLEANS    CLOUDY    78  67  68 S5        29.95F THUNDER
GULFPORT       PTSUNNY   86  67  52 S6        29.95S
PASCAGOULA AP  LGT RAIN  73  69  87 W3        29.95F
PASCAGOULA*    NOT AVBL
HATTIESBURG    SUNNY     94  62  34 N6        29.93F
LAUREL         SUNNY     91  63  38 SE3       29.95F
MERIDIAN       MOSUNNY   96  61  31 VRB6      29.94F HX  96
JACKSON        MOSUNNY   93  62  35 NW6       29.93F
MONTGOMERY     PTSUNNY   89  62  40 E8        29.93F
TROY           SUNNY     93  63  36 NW8       29.93F
KINSTON*       NOT AVBL
GENEVA*        NOT AVBL
ASHFORD*       NOT AVBL
DOTHAN         LGT RAIN  82  63  52 S18       29.95S
PANAMA CITY    CLOUDY    81  73  76 SW8       29.92F

$$




USA.gov is the U.S. government's official web portal to all federal, state and local government web resources and services.